| time (UTC) | temp F | wind direction | speed MPH | gust MPH | rain 1hr in | rain 24hr in | rain mn in | humidity % | barometer mb |
| 20260505022339 | 70 | 253 | 0.0 | 4.0 | 0.00 | 0.00 | 0.00 | 46 | 1023.9 |
| 20260505021836 | 70 | 354 | 2.0 | 4.0 | 0.00 | 0.00 | 0.00 | 47 | 1023.7 |
| 20260505021332 | 71 | 235 | 0.0 | 6.0 | 0.00 | 0.00 | 0.00 | 48 | 1023.7 |
| 20260505020828 | 72 | 327 | 3.0 | 3.0 | 0.00 | 0.00 | 0.00 | 46 | 1023.7 |
| 20260505020324 | 73 | 356 | 0.0 | 2.0 | 0.00 | 0.00 | 0.00 | 45 | 1023.7 |
| 20260505015821 | 73 | 72 | 2.0 | 2.0 | 0.00 | 0.00 | 0.00 | 45 | 1023.7 |
| 20260505015318 | 74 | 307 | 2.0 | 3.0 | 0.00 | 0.00 | 0.00 | 43 | 1023.6 |
| 20260505014816 | 75 | 49 | 2.0 | 4.0 | 0.00 | 0.00 | 0.00 | 42 | 1023.5 |
| 20260505014312 | 76 | 338 | 3.0 | 6.0 | 0.00 | 0.00 | 0.00 | 40 | 1023.7 |
| 20260505013809 | 77 | 56 | 0.0 | 2.0 | 0.00 | 0.00 | 0.00 | 38 | 1023.6 |
| 20260505013306 | 77 | 46 | 4.0 | 4.0 | 0.00 | 0.00 | 0.00 | 36 | 1023.7 |
| 20260505012805 | 78 | 17 | 3.0 | 4.0 | 0.00 | 0.00 | 0.00 | 34 | 1023.6 |
| 20260505012304 | 78 | 300 | 2.0 | 3.0 | 0.00 | 0.00 | 0.00 | 34 | 1023.6 |
| 20260505011757 | 77 | 42 | 3.0 | 4.0 | 0.00 | 0.00 | 0.00 | 35 | 1023.7 |
| 20260505011255 | 78 | 292 | 2.0 | 4.0 | 0.00 | 0.00 | 0.00 | 38 | 1023.5 |
| 20260505010750 | 77 | 175 | 1.0 | 6.0 | 0.00 | 0.00 | 0.00 | 38 | 1023.6 |
| 20260505010247 | 77 | 346 | 3.0 | 6.0 | 0.00 | 0.00 | 0.00 | 38 | 1023.7 |
| 20260505005743 | 77 | 42 | 2.0 | 7.0 | 0.00 | 0.00 | 0.00 | 36 | 1023.7 |
| 20260505005240 | 78 | 345 | 5.0 | 9.0 | 0.00 | 0.00 | 0.00 | 36 | 1023.8 |
| 20260505004737 | 79 | 223 | 6.0 | 6.0 | 0.00 | 0.00 | 0.00 | 35 | 1023.7 |
| 20260505004233 | 78 | 19 | 0.0 | 4.0 | 0.00 | 0.00 | 0.00 | 37 | 1023.8 |
| 20260505003731 | 78 | 17 | 2.0 | 8.0 | 0.00 | 0.00 | 0.00 | 36 | 1024.0 |
| 20260505003229 | 79 | 15 | 4.0 | 6.0 | 0.00 | 0.00 | 0.00 | 36 | 1023.6 |
| 20260505002725 | 78 | 343 | 7.0 | 9.0 | 0.00 | 0.00 | 0.00 | 38 | 1023.7 |
| 20260505002222 | 78 | 38 | 1.0 | 10.0 | 0.00 | 0.00 | 0.00 | 41 | 1023.7 |
| 20260505001720 | 78 | 74 | 1.0 | 5.0 | 0.00 | 0.00 | 0.00 | 38 | 1023.6 |
| 20260505001217 | 78 | 261 | 2.0 | 6.0 | 0.00 | 0.00 | 0.00 | 37 | 1023.8 |
| 20260505000714 | 79 | 264 | 2.0 | 8.0 | 0.00 | 0.00 | 0.00 | 37 | 1023.9 |
| 20260505000212 | 79 | 345 | 0.0 | 4.0 | 0.00 | 0.00 | 0.00 | 39 | 1023.7 |
| 20260504235708 | 79 | 67 | 1.0 | 9.0 | 0.00 | 0.00 | 0.00 | 38 | 1023.7 |
| 20260504235204 | 80 | 299 | 1.0 | 4.0 | 0.00 | 0.00 | 0.00 | 36 | 1023.6 |
| 20260504234702 | 80 | 250 | 4.0 | 4.0 | 0.00 | 0.00 | 0.00 | 37 | 1023.9 |
| 20260504234159 | 80 | 319 | 2.0 | 8.0 | 0.00 | 0.00 | 0.00 | 35 | 1023.9 |
| 20260504233654 | 80 | 38 | 2.0 | 3.0 | 0.00 | 0.00 | 0.00 | 34 | 1023.9 |
| 20260504233150 | 79 | 19 | 2.0 | 4.0 | 0.00 | 0.00 | 0.00 | 38 | 1023.8 |
| 20260504232648 | 79 | 292 | 3.0 | 7.0 | 0.00 | 0.00 | 0.00 | 36 | 1023.9 |
| 20260504232145 | 78 | 348 | 9.0 | 9.0 | 0.00 | 0.00 | 0.00 | 36 | 1024.0 |
| 20260504231642 | 79 | 75 | 3.0 | 7.0 | 0.00 | 0.00 | 0.00 | 38 | 1024.1 |
| 20260504231138 | 79 | 27 | 2.0 | 7.0 | 0.00 | 0.00 | 0.00 | 38 | 1024.1 |
| 20260504230634 | 80 | 34 | 6.0 | 6.0 | 0.00 | 0.00 | 0.00 | 34 | 1023.9 |
| 20260504230133 | 80 | 100 | 2.0 | 6.0 | 0.00 | 0.00 | 0.00 | 36 | 1024.1 |
| 20260504225631 | 80 | 311 | 2.0 | 5.0 | 0.00 | 0.00 | 0.00 | 34 | 1024.2 |
| 20260504225127 | 80 | 207 | 4.0 | 5.0 | 0.00 | 0.00 | 0.00 | 37 | 1023.9 |
| 20260504224624 | 79 | 244 | 3.0 | 6.0 | 0.00 | 0.00 | 0.00 | 34 | 1024.1 |
| 20260504224121 | 79 | 359 | 7.0 | 7.0 | 0.00 | 0.00 | 0.00 | 36 | 1024.0 |
| 20260504223618 | 80 | 338 | 2.0 | 8.0 | 0.00 | 0.00 | 0.00 | 33 | 1024.2 |
| 20260504223114 | 79 | 135 | 1.0 | 4.0 | 0.00 | 0.00 | 0.00 | 33 | 1024.1 |
| 20260504222611 | 79 | 31 | 2.0 | 7.0 | 0.00 | 0.00 | 0.00 | 40 | 1024.2 |
| 20260504222108 | 79 | 70 | 1.0 | 2.0 | 0.00 | 0.00 | 0.00 | 35 | 1024.2 |
| 20260504221605 | 78 | 9 | 8.0 | 9.0 | 0.00 | 0.00 | 0.00 | 39 | 1024.4 |
| 20260504221102 | 79 | 340 | 3.0 | 6.0 | 0.00 | 0.00 | 0.00 | 36 | 1024.4 |
| 20260504220558 | 78 | 66 | 3.0 | 7.0 | 0.00 | 0.00 | 0.00 | 35 | 1024.3 |
| 20260504220055 | 78 | 208 | 2.0 | 4.0 | 0.00 | 0.00 | 0.00 | 37 | 1024.4 |
| 20260504215552 | 78 | 236 | 5.0 | 6.0 | 0.00 | 0.00 | 0.00 | 35 | 1024.7 |
| 20260504215050 | 78 | 165 | 2.0 | 9.0 | 0.00 | 0.00 | 0.00 | 37 | 1024.6 |
| 20260504214545 | 78 | 271 | 3.0 | 4.0 | 0.00 | 0.00 | 0.00 | 36 | 1024.6 |
| 20260504214042 | 78 | 12 | 2.0 | 4.0 | 0.00 | 0.00 | 0.00 | 38 | 1024.6 |
| 20260504213538 | 77 | 246 | 4.0 | 6.0 | 0.00 | 0.00 | 0.00 | 41 | 1024.9 |
| 20260504213036 | 78 | 66 | 2.0 | 8.0 | 0.00 | 0.00 | 0.00 | 37 | 1024.8 |
| 20260504212531 | 78 | 126 | 2.0 | 4.0 | 0.00 | 0.00 | 0.00 | 38 | 1024.8 |
| 20260504212029 | 78 | 358 | 2.0 | 4.0 | 0.00 | 0.00 | 0.00 | 39 | 1024.6 |
| 20260504211526 | 77 | 2 | 3.0 | 4.0 | 0.00 | 0.00 | 0.00 | 36 | 1024.8 |
| 20260504211023 | 77 | 216 | 5.0 | 5.0 | 0.00 | 0.00 | 0.00 | 37 | 1024.9 |
| 20260504210520 | 77 | 34 | 3.0 | 4.0 | 0.00 | 0.00 | 0.00 | 35 | 1024.8 |
| 20260504210016 | 78 | 15 | 8.0 | 12.0 | 0.00 | 0.00 | 0.00 | 36 | 1024.7 |
| 20260504205514 | 77 | 320 | 2.0 | 5.0 | 0.00 | 0.00 | 0.00 | 44 | 1024.8 |
| 20260504205012 | 77 | 354 | 6.0 | 9.0 | 0.00 | 0.00 | 0.00 | 37 | 1024.8 |
| 20260504204510 | 77 | 35 | 3.0 | 4.0 | 0.00 | 0.00 | 0.00 | 39 | 1025.0 |
| 20260504204009 | 77 | 296 | 3.0 | 5.0 | 0.00 | 0.00 | 0.00 | 38 | 1024.9 |
| 20260504203506 | 76 | 25 | 5.0 | 11.0 | 0.00 | 0.00 | 0.00 | 38 | 1024.9 |
| 20260504203002 | 76 | 180 | 3.0 | 3.0 | 0.00 | 0.00 | 0.00 | 37 | 1025.0 |
| 20260504202458 | 75 | 227 | 3.0 | 5.0 | 0.00 | 0.00 | 0.00 | 39 | 1024.9 |
| 20260504201955 | 75 | 30 | 8.0 | 8.0 | 0.00 | 0.00 | 0.00 | 38 | 1025.0 |
| 20260504201453 | 76 | 29 | 6.0 | 7.0 | 0.00 | 0.00 | 0.00 | 38 | 1025.0 |
| 20260504200950 | 75 | 258 | 2.0 | 5.0 | 0.00 | 0.00 | 0.00 | 38 | 1025.2 |
| 20260504200447 | 76 | 9 | 3.0 | 5.0 | 0.00 | 0.00 | 0.00 | 39 | 1025.2 |
| 20260504195943 | 76 | 0 | 3.0 | 5.0 | 0.00 | 0.00 | 0.00 | 37 | 1025.2 |
| 20260504195439 | 75 | 25 | 2.0 | 4.0 | 0.00 | 0.00 | 0.00 | 44 | 1025.2 |
| 20260504194936 | 75 | 250 | 7.0 | 9.0 | 0.00 | 0.00 | 0.00 | 39 | 1025.2 |
| 20260504194432 | 75 | 157 | 2.0 | 4.0 | 0.00 | 0.00 | 0.00 | 44 | 1025.1 |
| 20260504193928 | 75 | 192 | 5.0 | 5.0 | 0.00 | 0.00 | 0.00 | 42 | 1025.2 |
| 20260504193426 | 75 | 305 | 1.0 | 4.0 | 0.00 | 0.00 | 0.00 | 45 | 1024.8 |
| 20260504192924 | 75 | 299 | 4.0 | 9.0 | 0.00 | 0.00 | 0.00 | 46 | 1025.0 |
| 20260504192421 | 75 | 302 | 3.0 | 7.0 | 0.00 | 0.00 | 0.00 | 47 | 1025.0 |
| 20260504191920 | 75 | 203 | 5.0 | 6.0 | 0.00 | 0.00 | 0.00 | 45 | 1025.1 |
| 20260504191418 | 75 | 37 | 2.0 | 4.0 | 0.00 | 0.00 | 0.00 | 44 | 1025.1 |
| 20260504190913 | 75 | 115 | 5.0 | 7.0 | 0.00 | 0.00 | 0.00 | 42 | 1025.0 |
| 20260504190409 | 75 | 87 | 2.0 | 2.0 | 0.00 | 0.00 | 0.00 | 44 | 1024.9 |
| 20260504185906 | 74 | 159 | 1.0 | 9.0 | 0.00 | 0.00 | 0.00 | 44 | 1024.9 |
| 20260504185403 | 74 | 35 | 1.0 | 4.0 | 0.00 | 0.00 | 0.00 | 45 | 1025.2 |
| 20260504184858 | 74 | 238 | 1.0 | 6.0 | 0.00 | 0.00 | 0.00 | 44 | 1025.2 |
| 20260504184354 | 73 | 142 | 4.0 | 7.0 | 0.00 | 0.00 | 0.00 | 49 | 1025.0 |
| 20260504183850 | 74 | 126 | 8.0 | 9.0 | 0.00 | 0.00 | 0.00 | 44 | 1025.2 |
| 20260504183348 | 73 | 122 | 9.0 | 12.0 | 0.00 | 0.00 | 0.00 | 47 | 1025.1 |
| 20260504182845 | 73 | 114 | 3.0 | 4.0 | 0.00 | 0.00 | 0.00 | 50 | 1025.3 |
| 20260504182343 | 73 | 272 | 2.0 | 7.0 | 0.00 | 0.00 | 0.00 | 45 | 1025.3 |
| 20260504181839 | 73 | 135 | 3.0 | 6.0 | 0.00 | 0.00 | 0.00 | 44 | 1025.3 |
| 20260504181337 | 73 | 43 | 3.0 | 4.0 | 0.00 | 0.00 | 0.00 | 46 | 1025.1 |
| 20260504180836 | 73 | 18 | 4.0 | 4.0 | 0.00 | 0.00 | 0.00 | 43 | 1025.1 |
| 20260504180334 | 73 | 242 | 1.0 | 4.0 | 0.00 | 0.00 | 0.00 | 44 | 1025.4 |
| 20260504175832 | 71 | 50 | 1.0 | 2.0 | 0.00 | 0.00 | 0.00 | 46 | 1025.2 |
| 20260504175328 | 71 | 99 | 3.0 | 5.0 | 0.00 | 0.00 | 0.00 | 45 | 1025.1 |
| 20260504174827 | 71 | 86 | 2.0 | 6.0 | 0.00 | 0.00 | 0.00 | 50 | 1025.1 |
| 20260504174324 | 71 | 95 | 4.0 | 7.0 | 0.00 | 0.00 | 0.00 | 52 | 1025.3 |
| 20260504173820 | 71 | 166 | 3.0 | 4.0 | 0.00 | 0.00 | 0.00 | 48 | 1025.1 |
| 20260504173317 | 71 | 232 | 3.0 | 4.0 | 0.00 | 0.00 | 0.00 | 47 | 1025.1 |
| 20260504172814 | 71 | 334 | 2.0 | 5.0 | 0.00 | 0.00 | 0.00 | 49 | 1025.1 |
| 20260504172311 | 71 | 220 | 3.0 | 5.0 | 0.00 | 0.00 | 0.00 | 49 | 1025.1 |
| 20260504171807 | 71 | 271 | 3.0 | 4.0 | 0.00 | 0.00 | 0.00 | 49 | 1025.2 |
| 20260504171304 | 71 | 210 | 1.0 | 3.0 | 0.00 | 0.00 | 0.00 | 49 | 1025.1 |
| 20260504170801 | 71 | 252 | 3.0 | 4.0 | 0.00 | 0.00 | 0.00 | 48 | 1025.0 |
| 20260504170258 | 70 | 201 | 0.0 | 4.0 | 0.00 | 0.00 | 0.00 | 50 | 1024.9 |
| 20260504160216 | 70 | 87 | 1.0 | 2.0 | 0.00 | 0.00 | 0.00 | 52 | 1025.1 |
| 20260504151144 | 62 | 102 | 1.0 | 3.0 | 0.00 | 0.00 | 0.00 | 65 | 1024.7 |
| 20260504150642 | 60 | 109 | 2.0 | 3.0 | 0.00 | 0.00 | 0.00 | 71 | 1024.6 |
| 20260504150138 | 59 | 128 | 1.0 | 2.0 | 0.00 | 0.00 | 0.00 | 77 | 1024.6 |
| 20260504141107 | 51 | 102 | 2.0 | 2.0 | 0.00 | 0.00 | 0.00 | 94 | 1024.3 |
| 20260504140604 | 51 | 63 | 1.0 | 3.0 | 0.00 | 0.00 | 0.00 | 94 | 1024.2 |
| 20260504130528 | 49 | 81 | 2.0 | 3.0 | 0.00 | 0.00 | 0.00 | 97 | 1023.9 |
| 20260504110415 | 50 | 88 | 2.0 | 2.0 | 0.00 | 0.00 | 0.00 | 94 | 1023.9 |
| 20260504100332 | 50 | 84 | 2.0 | 2.0 | 0.00 | 0.00 | 0.00 | 94 | 1023.8 |
| 20260504081726 | 51 | 71 | 2.0 | 2.0 | 0.00 | 0.00 | 0.00 | 88 | 1024.0 |
| 20260504081222 | 51 | 63 | 2.0 | 2.0 | 0.00 | 0.00 | 0.00 | 86 | 1023.9 |
| 20260504080718 | 53 | 75 | 2.0 | 2.0 | 0.00 | 0.00 | 0.00 | 84 | 1023.9 |
| 20260504080215 | 53 | 66 | 2.0 | 3.0 | 0.00 | 0.00 | 0.00 | 83 | 1023.8 |
| 20260504070143 | 54 | 116 | 1.0 | 2.0 | 0.00 | 0.00 | 0.00 | 76 | 1024.2 |
| 20260504050531 | 57 | 62 | 2.0 | 2.0 | 0.00 | 0.00 | 0.00 | 65 | 1023.9 |
| 20260504045525 | 57 | 67 | 2.0 | 2.0 | 0.00 | 0.00 | 0.00 | 63 | 1024.1 |
| 20260504045020 | 58 | 78 | 2.0 | 2.0 | 0.00 | 0.00 | 0.00 | 62 | 1023.9 |
| 20260504044518 | 59 | 60 | 1.0 | 2.0 | 0.00 | 0.00 | 0.00 | 61 | 1024.1 |
| 20260504044015 | 59 | 117 | 1.0 | 2.0 | 0.00 | 0.00 | 0.00 | 63 | 1024.0 |
| 20260504043512 | 59 | 65 | 2.0 | 2.0 | 0.00 | 0.00 | 0.00 | 61 | 1024.0 |
| 20260504043009 | 59 | 69 | 2.0 | 2.0 | 0.00 | 0.00 | 0.00 | 65 | 1024.0 |
| 20260504042506 | 59 | 69 | 1.0 | 2.0 | 0.00 | 0.00 | 0.00 | 62 | 1024.0 |
| 20260504042003 | 60 | 71 | 2.0 | 2.0 | 0.00 | 0.00 | 0.00 | 59 | 1023.9 |
| 20260504041459 | 60 | 81 | 1.0 | 2.0 | 0.00 | 0.00 | 0.00 | 57 | 1024.0 |
| 20260504040955 | 61 | 73 | 1.0 | 2.0 | 0.00 | 0.00 | 0.00 | 57 | 1024.1 |
| 20260504040453 | 61 | 89 | 1.0 | 2.0 | 0.00 | 0.00 | 0.00 | 59 | 1023.9 |
| 20260504035948 | 61 | 60 | 0.0 | 1.0 | 0.00 | 0.00 | 0.00 | 56 | 1024.0 |
| 20260504035446 | 61 | 52 | 1.0 | 2.0 | 0.00 | 0.00 | 0.00 | 56 | 1023.8 |
| 20260504034943 | 63 | 66 | 2.0 | 2.0 | 0.00 | 0.00 | 0.00 | 53 | 1023.8 |
| 20260504034440 | 64 | 56 | 2.0 | 2.0 | 0.00 | 0.00 | 0.00 | 53 | 1023.8 |
| 20260504033937 | 64 | 322 | 0.0 | 1.0 | 0.00 | 0.00 | 0.00 | 53 | 1023.8 |
| 20260504033435 | 64 | 44 | 0.0 | 0.0 | 0.00 | 0.00 | 0.00 | 54 | 1023.7 |
| 20260504032932 | 66 | 72 | 1.0 | 2.0 | 0.00 | 0.00 | 0.00 | 52 | 1023.6 |
| 20260504032429 | 67 | 66 | 0.0 | 2.0 | 0.00 | 0.00 | 0.00 | 52 | 1023.8 |
| 20260504031925 | 67 | 125 | 0.0 | 2.0 | 0.00 | 0.00 | 0.00 | 47 | 1023.7 |
| 20260504031422 | 68 | 12 | 2.0 | 3.0 | 0.00 | 0.00 | 0.00 | 51 | 1023.7 |
| 20260504030919 | 68 | 331 | 2.0 | 4.0 | 0.00 | 0.00 | 0.00 | 51 | 1023.7 |
| 20260504030416 | 68 | 342 | 1.0 | 3.0 | 0.00 | 0.00 | 0.00 | 51 | 1023.7 |
| 20260504025912 | 68 | 279 | 0.0 | 2.0 | 0.00 | 0.00 | 0.00 | 55 | 1023.8 |
| 20260504025409 | 69 | 286 | 2.0 | 3.0 | 0.00 | 0.00 | 0.00 | 55 | 1023.8 |
| 20260504024906 | 70 | 281 | 1.0 | 2.0 | 0.00 | 0.00 | 0.00 | 55 | 1023.7 |
| 20260504024403 | 71 | 329 | 0.0 | 3.0 | 0.00 | 0.00 | 0.00 | 55 | 1023.8 |
| 20260504023900 | 71 | 40 | 0.0 | 2.0 | 0.00 | 0.00 | 0.00 | 53 | 1023.8 |
| 20260504023356 | 72 | 53 | 2.0 | 3.0 | 0.00 | 0.00 | 0.00 | 50 | 1023.8 |
| 20260504022852 | 72 | 201 | 1.0 | 2.0 | 0.00 | 0.00 | 0.00 | 50 | 1023.8 |